Yatton Keynell, United Kingdom

6:39 PM BST on June 26, 2019 (GMT +0100)
Yatton Keynell

Weather History for 03740 - July, 2011

Change the Weather History Date:

Tuesday, July 19, 2011

  Actual Average Record
Temperature  
Mean Temperature 58 °F -  
Max Temperature 66 °F 68 °F - ()
Min Temperature 49 °F 53 °F - ()
Degree Days  
Heating Degree Days 8    
Growing Degree Days 8 (Base 50)    
Moisture  
Dew Point 52 °F    
Average Humidity 83    
Maximum Humidity 100    
Minimum Humidity 55    
Precipitation  
Precipitation 0.00 in 0.08 in - ()
Sea Level Pressure  
Sea Level Pressure 29.64 in    
Wind  
Wind Speed 6 mph ()    
Max Wind Speed 13 mph    
Max Gust Speed -    
Visibility 6.1 miles    
Events Fog    
T = Trace of Precipitation, MM = Missing Value Source: Averaged Metar Reports

Daily Weather History Graph

Daily Weather History Graph

Search for Another Location

Airport or City:

Astronomy

Jul. 19, 2011 Rise Set
Actual Time 5:12 AM BST 9:14 PM BST
Civil Twilight 4:28 AM BST 9:58 PM BST
Nautical Twilight 3:26 AM BST 11:00 PM BST
Astronomical Twilight 1:46 AM BST 12:41 AM BST
Moon 10:31 PM BST (7/19) 10:06 AM BST (7/19)
Length of Visible Light 17h 29m
Length of Day
16h 02m
Waning Gibbous, 83% of the Moon is Illuminated
Jul 19
Waning Gibbous
Jul 23
Last Quarter
Jul 30
New
Aug 6
First Quarter
Aug 13
Full

Hourly Weather History & Observations

Time (BST) Temp. Dew Point Humidity Pressure Visibility Wind Dir Wind Speed Gust Speed Precip Events Conditions
12:50 AM 51 °F 51 °F 98%  in 14 mi SSW 6.9 mph - -   Scattered Clouds
12:50 AM 51.8 °F 50.0 °F 94% 29.50 in 6.2 mi SSW 6.9 mph - N/A   Partly Cloudy
1:50 AM 51.8 °F 50.0 °F 94% 29.53 in 6.2 mi SSW 6.9 mph - N/A   Mostly Cloudy
2:50 AM 50.0 °F 50.0 °F 100% 29.53 in 6.2 mi SSW 6.9 mph - N/A   Mostly Cloudy
3:50 AM 50 °F 50 °F 99% 29.55 in 5 mi SSW 5.8 mph - -   Mostly Cloudy
3:50 AM 50.0 °F 50.0 °F 100% 29.53 in 5.0 mi SSW 5.8 mph - N/A   Mostly Cloudy
4:50 AM 50.0 °F 50.0 °F 100% 29.53 in 0.2 mi South 3.5 mph - N/A   Mostly Cloudy
5:50 AM 50.0 °F 50.0 °F 100% 29.56 in 0.3 mi SSW 4.6 mph - N/A Fog Fog
6:21 AM 51.8 °F 51.8 °F 100% 29.56 in 1.6 mi SW 4.6 mph - N/A   Mostly Cloudy
6:50 AM 51 °F 51 °F 100% 29.60 in 1 mi SW 5.8 mph - - Fog Light Fog
6:50 AM 51.8 °F 51.8 °F 100% 29.59 in 0.9 mi SW 5.8 mph - N/A   Mostly Cloudy
7:50 AM 53.6 °F 53.6 °F 100% 29.59 in 2.2 mi SSW 5.8 mph - N/A   Mostly Cloudy
8:25 AM 55.4 °F 55.4 °F 100% 29.59 in 3.1 mi SW 5.8 mph - N/A   Scattered Clouds
8:50 AM 55.4 °F 55.4 °F 100% 29.62 in 6.2 mi SW 4.6 mph - N/A   Mostly Cloudy
9:31 AM 57.2 °F 55.4 °F 94% 29.62 in 6.2 mi West 6.9 mph - N/A   Mostly Cloudy
9:50 AM 59 °F 56 °F 85% 29.64 in 9 mi WNW 8.1 mph - -   Partly Cloudy
9:50 AM 59.0 °F 55.4 °F 88% 29.62 in 6.2 mi WNW 8.1 mph - N/A   Mostly Cloudy
10:29 AM 60.8 °F 53.6 °F 77% 29.62 in 6.2 mi NW 8.1 mph - N/A   Mostly Cloudy
10:50 AM 60.8 °F 55.4 °F 82% 29.62 in 6.2 mi WNW 10.4 mph - N/A   Mostly Cloudy
11:50 AM 60.8 °F 51.8 °F 72% 29.65 in 6.2 mi NW 10.4 mph - N/A   Mostly Cloudy
12:50 PM 63 °F 53 °F 60% 29.67 in 16 mi NW 8.1 mph - -   Partly Cloudy
12:50 PM 62.6 °F 53.6 °F 72% 29.65 in 6.2 mi NW 8.1 mph - N/A   Scattered Clouds
1:50 PM 64.4 °F 51.8 °F 64% 29.65 in 6.2 mi NW 9.2 mph - N/A   Mostly Cloudy
2:50 PM 66.2 °F 53.6 °F 64% 29.68 in 6.2 mi NW 8.1 mph - N/A   Scattered Clouds
3:50 PM 64 °F 52 °F 55% 29.68 in 16 mi WNW 5.8 mph - -   Mostly Cloudy
3:50 PM 64.4 °F 51.8 °F 64% 29.68 in 6.2 mi WNW 5.8 mph - N/A   Scattered Clouds
4:50 PM 66.2 °F 55.4 °F 68% 29.68 in 6.2 mi WNW 6.9 mph - N/A   Scattered Clouds
5:50 PM 64.4 °F 51.8 °F 64% 29.68 in 6.2 mi WNW 11.5 mph - N/A   Scattered Clouds
6:50 PM 62.6 °F 51.8 °F 68% 29.71 in 6.2 mi NW 10.4 mph - N/A   Mostly Cloudy
7:50 PM 60.8 °F 51.8 °F 72% 29.74 in 6.2 mi NW 12.7 mph - N/A   Mostly Cloudy
8:50 PM 59.0 °F 50.0 °F 72% 29.77 in 6.2 mi NNW 9.2 mph - N/A   Mostly Cloudy
9:50 PM 58 °F 50 °F 68% 29.79 in 9 mi NNW 5.8 mph - -   Mostly Cloudy
9:50 PM 57.2 °F 50.0 °F 77% 29.77 in 6.2 mi NNW 5.8 mph - N/A   Mostly Cloudy
10:50 PM 55.4 °F 50.0 °F 82% 29.80 in 6.2 mi West 4.6 mph - N/A   Mostly Cloudy
11:50 PM 55.4 °F 48.2 °F 77% 29.80 in 6.2 mi West 5.8 mph - N/A   Mostly Cloudy